Main page
METAR-TAF:

METAR-TAF

Airports :

Brescia, Italy

Montichiari

latitude: 45-24-02N, longitude: 010-18-59E, elevation: 104 m

Current weather observation

The report was made 47 minutes ago, at 01:50 UTC
Wind 5 kt from the Northeast
Temperature 17°C
Humidity 68%
Pressure 1005 hPa
Visibility 10 km or more
no clouds below 1500 m and no cumulonimbus

METAR: LIPO 260150Z 05005KT CAVOK 17/11 Q1005

Time: 04:37 (02:37 UTC)

Forecast

The report was made 3 hours and 37 minutes ago, at 23:00 UTC
Forecast valid from 26 at 00 UTC to 26 at 24 UTC
Wind 8 kt from the East/Southeast
Visibility 10 km or more
no clouds below 1500 m and no cumulonimbus

TAF: LIPO 252300Z 2600/2624 12008KT CAVOK

Weather observations and forecasts of more than 4000 airports (METAR and TAF reports).

The available stations are represented by yellow and red dots on the map.

Hover mouse over dot to see the name of the station.

Then click to see weather observations and forecasts.

To change the map : click on the green buttons with a black cross to zoom in, on the green button with a dash to zoom out, or on the green arrows for adjacent maps.


METAR-TAF: